Back to catalog

IRIDE-MS2-HEO-15

AliveScienceSSO
NORAD 68987·PAYLOAD·🇮🇹 Italy

Launched May 3, 2026 from Vandenberg Space Force Base

Loading…

Next Passes (next 24 hours)

TLE

FreshSource: Space-Track

Epoch: Sep 14, 2026, 16:16 UTC

1 68987U 26100H   26257.67787960  .00001048  00000-0  10884-3 0  9996
2 68987  97.7208 153.3904 0001864 140.8517 219.2837 14.92010902 20049

Track IRIDE-MS2-HEO-15 in real time with AllMySat

Download on the App Store